Powrót do katalogu

CZ-3B DEB

AktywnyHEO
NORAD 42458·DEBRIS·🇨🇳 China

Wystrzelony Sep 4, 2010 z Xichang Satellite Launch Center

Loading…

Następne Przeloty (najbliższe 24 godziny)

TLE

ŚwieżeSource: Space-Track

Epoka: Sep 13, 2026, 20:59 UTC

1 42458U 10042Z   26256.87448042  .00000017  00000-0  19322-2 0  9995
2 42458  29.4803 229.7127 7512433 265.4787  14.2977  1.81318839 78080

Śledź CZ-3B DEB w czasie rzeczywistym z AllMySat

Download on the App Store